N1IJV-10 Weather Reports


Display with metric or nautical units.
time (UTC)temp
F
wind
direction
speed
MPH
gust
MPH
rain 1hr
in
rain 24hr
in
rain mn
in
humidity
%
barometer
mb
20260905120317 74 147 0.0 0.0 0.00 0.01 0.01 99 1010.2
20260905115812 74 149 0.0 0.0 0.00 0.01 0.01 99 1010.4
20260905115312 74 148 0.0 0.0 0.00 0.01 0.01 99 1010.4
20260905114812 74 147 0.0 0.0 0.00 0.01 0.01 99 1010.3
20260905114311 74 151 0.0 0.0 0.00 0.01 0.01 99 1010.2
20260905113810 74 147 0.0 0.0 0.00 0.01 0.01 99 1010.0
20260905113306 74 146 0.0 0.0 0.00 0.01 0.01 99 1010.0
20260905112801 74 186 0.0 0.0 0.00 0.01 0.01 99 1010.0
20260905112256 75 147 0.0 0.0 0.00 0.01 0.01 99 1009.9
20260905111750 75 183 0.0 0.0 0.00 0.01 0.01 99 1009.8
20260905111245 75 148 0.0 0.0 0.00 0.01 0.01 99 1009.8
20260905110744 75 147 0.0 1.0 0.00 0.01 0.01 99 1009.8
20260905110238 75 146 0.0 1.0 0.00 0.01 0.01 99 1009.7
20260905105734 75 148 1.0 1.0 0.00 0.01 0.01 99 1009.7
20260905105233 76 149 1.0 2.0 0.00 0.01 0.01 99 1009.6
20260905104728 75 149 0.0 0.0 0.00 0.01 0.01 99 1009.5
20260905104224 75 147 0.0 0.0 0.00 0.01 0.01 99 1009.5
20260905103719 75 162 0.0 0.0 0.00 0.01 0.01 99 1009.5
20260905103215 75 151 0.0 0.0 0.00 0.01 0.01 99 1009.6
20260905102710 75 149 0.0 0.0 0.00 0.01 0.01 99 1009.7
20260905102207 75 186 0.0 0.0 0.00 0.01 0.01 99 1009.4
20260905101706 75 149 0.0 0.0 0.00 0.01 0.01 99 1009.6
20260905101204 76 149 0.0 0.0 0.00 0.01 0.01 99 1009.4
20260905100701 76 147 0.0 0.0 0.00 0.01 0.01 99 1009.5
20260905100155 76 147 0.0 0.0 0.00 0.01 0.01 99 1009.6
20260905095654 76 147 0.0 0.0 0.00 0.01 0.01 99 1009.5
20260905095149 76 152 0.0 0.0 0.00 0.01 0.01 99 1009.4
20260905094644 76 147 0.0 0.0 0.00 0.01 0.01 99 1009.5
20260905094143 76 147 0.0 0.0 0.00 0.01 0.01 99 1009.5
20260905093638 76 145 0.0 0.0 0.00 0.01 0.01 99 1009.7
20260905093135 76 147 0.0 0.0 0.00 0.01 0.01 99 1009.6
20260905092634 76 151 0.0 0.0 0.00 0.01 0.01 99 1009.7
20260905092130 76 147 0.0 0.0 0.00 0.01 0.01 99 1009.5
20260905091630 76 148 0.0 0.0 0.00 0.01 0.01 99 1009.3
20260905091130 76 147 0.0 0.0 0.00 0.01 0.01 99 1009.5
20260905090625 76 147 0.0 0.0 0.00 0.01 0.01 99 1009.3
20260905090120 76 147 0.0 0.0 0.00 0.01 0.01 99 1009.6
20260905085619 76 186 0.0 0.0 0.00 0.01 0.01 99 1009.4
20260905085114 76 151 0.0 0.0 0.07 0.01 0.01 99 1009.4
20260905084614 76 147 0.0 0.0 0.07 0.01 0.01 99 1009.6
20260905084109 76 147 0.0 0.0 0.00 0.00 0.00 99 1009.6
20260905083603 75 145 0.0 0.0 0.00 0.00 0.00 99 1009.3
20260905083100 75 147 0.0 0.0 0.00 0.00 0.00 99 1009.6
20260905082555 75 147 0.0 0.0 0.00 0.00 0.00 99 1009.4
20260905082051 75 186 0.0 0.0 0.00 0.00 0.00 99 1009.6
20260905081550 76 152 0.0 0.0 0.00 0.00 0.00 99 1009.6
20260905081045 75 162 0.0 0.0 0.00 0.00 0.00 99 1009.5
20260905080544 75 147 0.0 0.0 0.00 0.00 0.00 99 1009.5
20260905080039 75 147 0.0 0.0 0.00 0.00 0.00 99 1009.4
20260905075533 76 149 0.0 0.0 0.00 0.00 0.00 99 1009.2
20260905075033 76 152 0.0 0.0 0.00 0.00 0.00 99 1009.6
20260905074527 76 147 0.0 0.0 0.00 0.00 0.00 99 1009.5
20260905074023 76 147 0.0 0.0 0.00 0.00 0.00 99 1009.5
20260905073518 76 186 0.0 0.0 0.00 0.00 0.00 99 1009.5
20260905073014 76 147 0.0 0.0 0.00 0.00 0.00 99 1009.6
20260905072513 76 163 0.0 0.0 0.00 0.00 0.00 98 1009.7
20260905072009 76 152 0.0 0.0 0.00 0.00 0.00 98 1009.8
20260905071506 77 129 0.0 0.0 0.00 0.00 0.00 98 1009.6
20260905071000 77 103 0.0 0.0 0.00 0.00 0.00 98 1009.8
20260905070456 77 147 0.0 0.0 0.00 0.00 0.00 97 1009.8
20260905065955 77 147 0.0 0.0 0.00 0.00 0.00 97 1009.8
20260905065454 77 147 0.0 0.0 0.00 0.00 0.00 97 1009.8
20260905064949 77 149 0.0 0.0 0.00 0.00 0.00 97 1009.7
20260905064444 77 147 0.0 0.0 0.00 0.00 0.00 97 1009.7
20260905063939 77 145 0.0 0.0 0.00 0.00 0.00 96 1009.6
20260905063434 78 147 0.0 0.0 0.00 0.00 0.00 96 1009.7
20260905062930 78 147 0.0 0.0 0.00 0.00 0.00 96 1009.9
20260905062430 78 149 0.0 0.0 0.00 0.00 0.00 96 1009.8
20260905061925 78 143 0.0 0.0 0.00 0.00 0.00 95 1009.9
20260905061419 78 147 0.0 0.0 0.00 0.00 0.00 95 1009.9
20260905060918 78 163 0.0 0.0 0.00 0.00 0.00 94 1010.1
20260905060415 79 147 0.0 0.0 0.00 0.00 0.00 94 1010.1
20260905055914 79 149 0.0 0.0 0.00 0.00 0.00 94 1010.0
20260905055409 79 147 0.0 2.0 0.00 0.00 0.00 94 1009.7
20260905054908 79 148 0.0 0.0 0.00 0.00 0.00 94 1010.1
20260905054404 79 147 0.0 0.0 0.00 0.00 0.00 94 1010.0
20260905053904 79 143 0.0 0.0 0.00 0.00 0.00 93 1010.1
20260905053359 80 152 0.0 0.0 0.00 0.00 0.00 93 1010.0
20260905052855 80 147 0.0 0.0 0.00 0.00 0.00 92 1009.8
20260905052354 80 149 0.0 0.0 0.00 0.00 0.00 92 1009.8
20260905051854 80 149 0.0 0.0 0.00 0.00 0.00 92 1010.1
20260905051350 80 148 0.0 0.0 0.00 0.00 0.00 92 1009.9
20260905050847 80 147 0.0 0.0 0.00 0.00 0.00 91 1009.8
20260905050343 80 149 0.0 0.0 0.00 0.00 0.00 91 1010.1
20260905045843 80 148 0.0 0.0 0.00 0.00 0.00 91 1010.0
20260905045338 81 147 0.0 0.0 0.00 0.00 0.00 90 1009.8
20260905044833 81 148 0.0 0.0 0.00 0.00 0.00 90 1009.7
20260905044329 81 147 0.0 1.0 0.00 0.00 0.00 89 1009.8
20260905043827 81 147 0.0 2.0 0.00 0.00 0.00 89 1009.7
20260905043322 82 145 0.0 1.0 0.00 0.00 0.00 89 1009.8
20260905042817 82 139 1.0 2.0 0.00 0.00 0.00 88 1009.7
20260905042316 82 145 1.0 2.0 0.00 0.00 0.00 88 1009.7
20260905041812 82 152 0.0 1.0 0.00 0.00 0.00 88 1010.0
20260905041308 82 143 1.0 1.0 0.00 0.00 0.00 87 1009.7
20260905040803 82 153 0.0 2.0 0.00 0.00 0.00 87 1009.9
20260905040302 82 145 1.0 2.0 0.00 0.00 0.00 87 1009.8
20260905035756 82 145 2.0 3.0 0.00 0.00 0.00 87 1009.7
20260905035252 82 145 1.0 2.0 0.00 0.00 0.00 87 1009.9
20260905034749 82 147 0.0 1.0 0.00 0.00 0.00 88 1010.0
20260905034248 82 144 0.0 5.0 0.00 0.00 0.00 87 1009.8
20260905033747 80 147 0.0 1.0 0.00 0.00 0.00 91 1009.9
20260905033243 80 153 0.0 0.0 0.00 0.00 0.00 93 1010.4
20260905032742 79 147 0.0 0.0 0.00 0.00 0.00 94 1010.3
20260905032238 79 147 0.0 0.0 0.00 0.00 0.00 95 1010.2
20260905031732 80 147 0.0 0.0 0.00 0.00 0.00 95 1010.3
20260905031229 80 147 0.0 0.0 0.00 0.00 0.00 94 1010.3
20260905030723 80 139 0.0 0.0 0.00 0.00 0.00 93 1010.3
20260905030218 80 127 0.0 0.0 0.00 0.00 0.00 93 1010.7
20260905025713 80 153 0.0 0.0 0.00 0.00 0.00 93 1010.7
20260905025209 80 145 0.0 0.0 0.00 0.00 0.00 92 1010.6
20260905024704 80 139 0.0 0.0 0.00 0.00 0.00 92 1010.4
20260905024200 81 153 0.0 0.0 0.00 0.00 0.00 91 1010.6
20260905023654 81 192 0.0 0.0 0.00 0.00 0.00 91 1010.4
20260905023149 81 147 0.0 0.0 0.00 0.00 0.00 91 1010.4
20260905022648 81 149 0.0 0.0 0.00 0.00 0.00 90 1010.4
20260905022144 81 147 0.0 0.0 0.00 0.00 0.00 90 1010.2
20260905021643 81 149 0.0 0.0 0.00 0.00 0.00 90 1010.4
20260905021139 81 147 0.0 0.0 0.00 0.00 0.00 89 1010.2
20260905020633 81 152 0.0 0.0 0.00 0.00 0.00 89 1010.0
20260905020128 82 149 0.0 0.0 0.00 0.00 0.00 89 1009.9
20260905015627 82 146 0.0 0.0 0.00 0.00 0.00 88 1010.0
20260905015121 82 192 0.0 0.0 0.00 0.00 0.00 88 1010.0
20260905014615 82 147 0.0 0.0 0.00 0.00 0.00 88 1010.0
20260905014111 82 147 0.0 1.0 0.00 0.00 0.00 88 1010.0
20260905013608 82 147 0.0 0.0 0.00 0.00 0.00 88 1009.6
20260905013103 82 147 0.0 0.0 0.00 0.00 0.00 88 1009.7
20260905012602 82 192 0.0 0.0 0.00 0.00 0.00 87 1009.6
20260905012100 82 192 0.0 0.0 0.00 0.00 0.00 87 1009.6
20260905011555 83 147 0.0 0.0 0.00 0.00 0.00 86 1009.4
20260905011051 83 147 0.0 0.0 0.00 0.00 0.00 86 1009.6
20260905010550 84 147 0.0 0.0 0.00 0.00 0.00 84 1009.7
20260905010047 84 134 0.0 0.0 0.00 0.00 0.00 83 1009.4
20260905005542 84 107 0.0 0.0 0.00 0.00 0.00 83 1009.2
20260905005038 85 104 0.0 0.0 0.00 0.00 0.00 82 1009.3
20260905004532 85 107 0.0 0.0 0.00 0.00 0.00 81 1009.2
20260905004027 86 101 0.0 1.0 0.00 0.00 0.00 80 1009.3
20260905003523 87 128 1.0 2.0 0.00 0.00 0.00 77 1009.1
20260905003019 87 101 0.0 1.0 0.00 0.00 0.00 77 1009.4
20260905002514 87 208 1.0 3.0 0.00 0.00 0.00 75 1009.1
20260905002008 88 200 1.0 3.0 0.00 0.00 0.00 74 1009.1
20260905001503 88 138 3.0 5.0 0.00 0.00 0.00 74 1009.2
20260905000957 87 110 1.0 3.0 0.00 0.00 0.00 74 1009.4
20260905000454 87 121 0.0 0.0 0.00 0.00 0.00 76 1008.9
20260904235949 87 180 1.0 2.0 0.00 0.00 0.00 75 1009.0
20260904235444 88 168 3.0 3.0 0.00 0.00 0.00 75 1009.0
20260904234944 88 191 3.0 3.0 0.00 0.00 0.00 74 1009.3
20260904234443 88 191 2.0 3.0 0.00 0.00 0.00 74 1009.2
20260904233940 88 271 2.0 3.0 0.00 0.00 0.00 74 1009.0
20260904233435 89 167 2.0 3.0 0.00 0.00 0.00 74 1009.1
20260904232931 89 154 1.0 3.0 0.00 0.00 0.00 74 1009.1
20260904232427 89 205 3.0 3.0 0.00 0.00 0.00 74 1009.0
20260904231924 89 119 1.0 2.0 0.00 0.00 0.00 74 1009.2
20260904231424 89 142 1.0 2.0 0.00 0.00 0.00 73 1009.4
20260904230919 89 166 1.0 1.0 0.00 0.00 0.00 74 1009.3
20260904230418 90 145 1.0 3.0 0.00 0.00 0.00 72 1009.4
20260904225913 90 159 3.0 5.0 0.00 0.00 0.00 71 1009.5
20260904225411 90 176 2.0 5.0 0.00 0.00 0.00 72 1009.4
20260904224905 90 306 1.0 2.0 0.00 0.00 0.00 72 1009.2
20260904224401 91 156 1.0 2.0 0.00 0.00 0.00 72 1009.3
20260904223855 91 150 1.0 5.0 0.00 0.00 0.00 71 1009.3
20260904223354 91 159 2.0 5.0 0.00 0.00 0.00 69 1009.5
20260904222850 92 141 5.0 7.0 0.00 0.00 0.00 68 1009.5
20260904222345 92 162 2.0 3.0 0.00 0.00 0.00 68 1009.3
20260904221845 93 297 3.0 6.0 0.00 0.00 0.00 67 1009.3
20260904221340 94 102 0.0 3.0 0.00 0.00 0.00 66 1009.3
20260904220835 93 121 2.0 5.0 0.00 0.00 0.00 66 1009.3
20260904220334 94 158 2.0 2.0 0.00 0.00 0.00 64 1009.5
20260904215830 93 119 1.0 2.0 0.00 0.00 0.00 66 1009.4
20260904215325 93 137 2.0 3.0 0.00 0.00 0.00 65 1009.3
20260904214821 93 137 2.0 8.0 0.00 0.00 0.00 64 1009.4
20260904214316 94 143 2.0 3.0 0.00 0.00 0.00 63 1009.1
20260904213814 94 136 1.0 2.0 0.00 0.00 0.00 65 1009.3
20260904213309 93 138 2.0 5.0 0.00 0.00 0.00 64 1009.2
20260904212806 94 136 3.0 7.0 0.00 0.00 0.00 65 1009.3
20260904212306 93 134 2.0 5.0 0.00 0.00 0.00 65 1009.1
20260904211801 93 140 2.0 6.0 0.00 0.00 0.00 63 1009.1
20260904211255 94 138 2.0 2.0 0.00 0.00 0.00 62 1009.1
20260904210751 93 138 2.0 5.0 0.00 0.00 0.00 62 1009.1
20260904210245 93 141 1.0 6.0 0.00 0.00 0.00 64 1009.3
20260904205741 93 141 2.0 5.0 0.00 0.00 0.00 63 1009.2
20260904205237 93 152 3.0 5.0 0.00 0.00 0.00 64 1009.1
20260904204734 93 143 1.0 7.0 0.00 0.00 0.00 64 1009.4
20260904204229 94 131 2.0 5.0 0.00 0.00 0.00 63 1009.5
20260904203725 93 138 1.0 5.0 0.00 0.00 0.00 63 1009.7
20260904203221 94 137 2.0 5.0 0.00 0.00 0.00 63 1009.5
20260904202717 93 138 1.0 3.0 0.00 0.00 0.00 62 1009.9
20260904202213 93 138 3.0 6.0 0.00 0.00 0.00 64 1009.8
20260904201708 93 154 3.0 5.0 0.00 0.00 0.00 62 1009.8
20260904201208 94 151 4.0 6.0 0.00 0.00 0.00 62 1010.0
20260904200703 94 138 1.0 3.0 0.00 0.00 0.00 61 1010.2
20260904200157 94 145 1.0 3.0 0.00 0.00 0.00 61 1010.0
20260904195656 93 135 3.0 5.0 0.00 0.00 0.00 61 1010.1
20260904195150 92 138 1.0 3.0 0.00 0.00 0.00 63 1010.3
20260904194644 92 137 6.0 9.0 0.00 0.00 0.00 63 1010.3
20260904194138 92 143 2.0 6.0 0.00 0.00 0.00 63 1010.4
20260904193633 92 141 2.0 3.0 0.00 0.00 0.00 61 1010.5
20260904193129 92 136 2.0 3.0 0.00 0.00 0.00 62 1010.8
20260904192629 92 138 1.0 3.0 0.00 0.00 0.00 63 1010.5
20260904192125 92 138 2.0 5.0 0.00 0.00 0.00 63 1010.9
20260904191622 91 126 3.0 5.0 0.00 0.00 0.00 65 1010.5
20260904191118 90 146 3.0 6.0 0.00 0.00 0.00 64 1010.6
20260904190613 91 138 2.0 3.0 0.00 0.00 0.00 65 1010.8
20260904190109 91 139 0.0 5.0 0.00 0.00 0.00 66 1010.8
20260904185606 90 138 1.0 6.0 0.00 0.00 0.00 65 1011.0
20260904185100 89 147 2.0 7.0 0.00 0.00 0.00 66 1011.0
20260904184559 89 138 2.0 6.0 0.00 0.00 0.00 66 1011.1
20260904184055 89 134 3.0 7.0 0.00 0.00 0.00 65 1011.2
20260904183550 88 138 1.0 2.0 0.00 0.00 0.00 67 1011.3
20260904183045 87 137 2.0 5.0 0.00 0.00 0.00 67 1011.2
20260904182540 88 138 2.0 3.0 0.00 0.00 0.00 66 1011.4
20260904182035 88 136 2.0 3.0 0.00 0.00 0.00 65 1011.4
20260904181531 89 135 2.0 6.0 0.00 0.00 0.00 64 1011.4
20260904181030 88 140 1.0 7.0 0.00 0.00 0.00 66 1011.6
20260904180525 87 147 2.0 3.0 0.00 0.00 0.00 67 1011.8
20260904180021 86 135 3.0 7.0 0.00 0.00 0.00 69 1011.7
20260904175520 86 136 2.0 3.0 0.00 0.00 0.00 68 1011.8
20260904175018 86 137 3.0 6.0 0.00 0.00 0.00 69 1012.1
20260904174514 86 131 2.0 6.0 0.00 0.00 0.00 69 1012.4
20260904174011 85 132 4.0 8.0 0.00 0.00 0.00 70 1012.6
20260904173505 85 129 1.0 6.0 0.00 0.00 0.00 71 1012.7
20260904173000 84 134 1.0 6.0 0.00 0.00 0.00 70 1012.7
20260904172456 84 135 3.0 9.0 0.00 0.00 0.00 71 1012.8
20260904171950 84 130 5.0 6.0 0.00 0.00 0.00 71 1013.1
20260904171445 84 134 3.0 3.0 0.00 0.00 0.00 71 1013.3
20260904170941 84 141 5.0 7.0 0.00 0.00 0.00 70 1013.4
20260904170441 84 138 2.0 5.0 0.00 0.00 0.00 71 1013.4
20260904165937 83 135 6.0 8.0 0.00 0.00 0.00 72 1013.4
20260904165436 83 136 5.0 10.0 0.00 0.00 0.00 73 1013.4
20260904164935 83 136 4.0 9.0 0.00 0.00 0.00 73 1013.4
20260904164430 83 133 2.0 7.0 0.00 0.00 0.00 74 1013.2
20260904163926 83 121 4.0 8.0 0.00 0.00 0.00 75 1013.3
20260904163426 83 131 3.0 7.0 0.00 0.00 0.00 75 1013.5
20260904162920 83 125 3.0 8.0 0.00 0.00 0.00 76 1013.7
20260904162415 84 137 3.0 7.0 0.00 0.00 0.00 75 1013.6
20260904161911 84 135 3.0 6.0 0.00 0.00 0.00 76 1013.4
20260904161406 84 131 1.0 6.0 0.00 0.00 0.00 77 1013.3
20260904160902 85 133 3.0 9.0 0.00 0.00 0.00 76 1013.0
20260904160357 84 137 3.0 8.0 0.00 0.00 0.00 77 1013.0
20260904155852 84 138 5.0 13.0 0.00 0.00 0.00 78 1013.0
20260904155346 83 140 2.0 3.0 0.00 0.00 0.00 82 1012.8
20260904154845 83 140 2.0 5.0 0.00 0.00 0.00 81 1013.0
20260904154339 85 139 1.0 6.0 0.00 0.00 0.00 79 1012.9
20260904153835 86 139 2.0 5.0 0.00 0.00 0.00 77 1012.6
20260904153330 85 144 1.0 6.0 0.00 0.00 0.00 77 1012.3
20260904152827 85 136 3.0 8.0 0.00 0.00 0.00 77 1012.2
20260904152321 85 139 3.0 8.0 0.00 0.00 0.00 77 1012.3
20260904151816 86 143 3.0 10.0 0.00 0.00 0.00 77 1012.2
20260904151315 86 140 4.0 6.0 0.00 0.00 0.00 76 1012.3
20260904150811 85 138 1.0 3.0 0.00 0.00 0.00 77 1012.3
20260904150306 85 140 1.0 3.0 0.00 0.00 0.00 79 1012.1
20260904145804 84 138 2.0 5.0 0.00 0.00 0.00 79 1011.9
20260904145300 84 142 5.0 6.0 0.00 0.00 0.00 80 1011.7
20260904144755 84 138 3.0 6.0 0.00 0.00 0.00 80 1011.8
20260904144251 84 142 1.0 6.0 0.00 0.00 0.00 81 1011.9
20260904143747 84 139 3.0 3.0 0.00 0.00 0.00 80 1011.7
20260904143243 85 139 2.0 3.0 0.00 0.00 0.00 79 1011.6
20260904142739 85 138 3.0 8.0 0.00 0.00 0.00 78 1011.5
20260904142235 85 138 1.0 3.0 0.00 0.00 0.00 75 1011.4
20260904141735 84 139 0.0 1.0 0.00 0.00 0.00 76 1011.7
20260904141230 84 139 1.0 1.0 0.00 0.00 0.00 77 1011.9
20260904140726 85 139 1.0 3.0 0.00 0.00 0.00 77 1011.7
20260904140221 84 140 0.0 2.0 0.00 0.00 0.00 75 1011.7
20260904135719 84 137 0.0 0.0 0.00 0.00 0.00 79 1011.7
20260904135215 83 139 1.0 2.0 0.00 0.00 0.00 80 1011.4
20260904134711 82 138 0.0 0.0 0.00 0.00 0.00 81 1011.5
20260904134210 82 138 0.0 1.0 0.00 0.00 0.00 80 1011.4
20260904133705 82 138 0.0 0.0 0.00 0.00 0.00 81 1011.4
20260904133202 82 138 0.0 1.0 0.00 0.00 0.00 82 1011.4
20260904132701 81 139 1.0 2.0 0.00 0.00 0.00 82 1011.3
20260904132156 81 138 0.0 1.0 0.00 0.00 0.00 83 1011.4
20260904131655 81 138 0.0 0.0 0.00 0.00 0.00 83 1011.4
20260904131151 80 138 0.0 1.0 0.00 0.00 0.00 84 1011.4
20260904130645 80 139 1.0 2.0 0.00 0.00 0.00 84 1011.2
20260904130145 80 138 1.0 2.0 0.00 0.00 0.00 85 1011.1
20260904125641 79 138 0.0 1.0 0.00 0.00 0.00 85 1011.3
20260904125136 78 138 0.0 0.0 0.00 0.00 0.00 87 1010.9
20260904124631 77 138 0.0 1.0 0.00 0.00 0.00 87 1010.8
20260904124127 77 139 0.0 0.0 0.00 0.00 0.00 90 1010.8
20260904123627 77 137 0.0 0.0 0.00 0.00 0.00 90 1010.5
20260904123123 76 138 0.0 0.0 0.00 0.00 0.00 90 1010.6
20260904122617 76 137 0.0 0.0 0.00 0.00 0.00 91 1010.2
20260904122112 76 137 0.0 0.0 0.00 0.00 0.00 91 1010.1
20260904121608 76 138 0.0 0.0 0.00 0.00 0.00 91 1010.1
20260904121103 76 138 0.0 0.0 0.00 0.00 0.00 91 1010.1